[[{"header":{"parameterUnit":"m.s-1","parameterCategory":1,"la1":30.2991,"la2":30.254,"lo1":-89.0895,"lo2":-89.0444,"dy":0.0017,"dx":0.0017,"nx":28,"ny":28,"refTime":"2023-09-14T03:00:00:Z","depth":0,"parameterNumber":2,"parameterNumberName":"U-component_of_WINDS"},"data":[0,0,0,0,0,0,0,0,0,0,0,0,0,0,0,0,0,0,0,0,0,0,0,0,0,0,0,0,0,0,0,0,0,0,0,0,0,0,0,0,0,0,0,0,0,0,0,0,0,0,0,0,0,0,0,0,0,0,-1.703,-1.703,0,-1.7004,-1.7004,-1.7004,-1.6968,-1.6968,-1.6967,-1.6967,-1.6939,-1.6939,-1.6938,0,0,0,0,0,0,0,0,0,0,0,0,0,-1.7049,-1.7049,-1.703,-1.703,-1.703,-1.7004,-1.7004,-1.7003,-1.6969,-1.6968,-1.6967,-1.6966,-1.6939,-1.6939,-1.6938,0,0,0,0,0,0,0,0,0,0,0,0,0,-1.7034,-1.7049,-1.703,-1.7009,-1.7007,-1.7004,-1.7004,-1.7003,-1.6969,-1.6968,-1.6967,-1.6966,-1.6939,-1.6939,-1.6938,-1.6954,0,0,-1.6937,-1.6937,0,0,0,0,0,0,0,0,-1.7035,-1.7033,-1.7013,-1.7011,-1.7008,-1.6989,-1.7,-1.6987,-1.6969,-1.6983,-1.6967,-1.6966,-1.6956,-1.6954,-1.6951,-1.6953,-1.6951,-1.6937,-1.6937,-1.6937,-1.6937,0,0,0,0,0,0,0,-1.7036,-1.7034,-1.702,-1.7012,-1.701,-1.7001,-1.6998,-1.6998,-1.6975,-1.6982,-1.6979,-1.6977,-1.6955,-1.6952,-1.695,-1.6951,-1.6937,-1.6937,-1.6937,-1.6937,-1.6964,-1.6965,0,0,0,0,0,0,-1.704,-1.7035,-1.7021,-1.7019,-1.702,-1.7001,-1.6998,-1.6996,-1.6975,-1.6971,-1.6978,-1.6975,-1.6953,-1.6951,-1.6949,-1.6966,-1.6937,-1.6937,-1.6937,-1.6963,-1.6964,-1.6965,0,0,0,0,0,0,-1.7041,-1.7039,-1.7022,-1.7026,-1.7023,-1.7002,-1.7,-1.6996,-1.6993,-1.6971,-1.6967,-1.6979,-1.6952,-1.695,-1.6953,-1.6964,-1.6937,-1.6936,-1.6962,-1.6963,-1.6965,-1.6999,0,0,0,0,0,0,-1.7041,-1.704,-1.7045,-1.7027,-1.7023,-1.7026,-1.7001,-1.6996,-1.6992,-1.6989,-1.6971,-1.6967,-1.6951,-1.6954,-1.6953,-1.6963,-1.6936,-1.6961,-1.6963,-1.6964,-1.6997,-1.7001,-1.7005,0,0,0,0,0,-1.7042,-1.7056,-1.7046,-1.7044,-1.703,-1.7027,-1.7025,-1.7006,-1.6993,-1.6999,-1.6985,-1.6968,-1.6964,-1.6954,-1.6953,-1.6964,-1.696,-1.6962,-1.6964,-1.6995,-1.7,-1.7005,0,0,0,0,0,0,-1.7075,-1.7053,-1.7041,-1.705,-1.7041,-1.7021,-1.7027,-1.7013,-1.7007,-1.7004,-1.698,-1.6977,-1.6983,-1.6974,-1.6964,-1.6978,-1.6959,-1.6961,-1.6983,-1.6988,-1.6992,-1.6994,-1.6936,0,0,0,0,0,-1.7084,-1.7083,-1.7064,-1.7073,-1.7069,-1.7049,-1.7047,-1.7033,-1.7023,-1.7019,-1.7005,-1.6995,-1.6992,-1.699,-1.6985,-1.6996,-1.6991,-1.7002,-1.7007,-1.701,-1.7012,-1.7016,-1.7021,-1.6972,-1.6972,-1.6972,0,0,-1.7101,-1.7088,-1.7089,-1.7079,-1.707,-1.707,-1.7046,-1.7047,-1.7046,-1.7018,-1.7021,-1.7011,-1.6999,-1.7006,-1.7008,-1.6998,-1.7025,-1.7013,-1.7016,-1.7015,-1.7019,-1.7024,-1.7028,-1.6973,-1.6973,-1.6973,0,0,-1.7131,-1.7122,-1.7129,-1.7121,-1.7108,-1.7095,-1.7097,-1.708,-1.7073,-1.7075,-1.7054,-1.7053,-1.7048,-1.7039,-1.7035,-1.7064,-1.7047,-1.7063,-1.7085,-1.7089,-1.7093,-1.7097,-1.7106,-1.711,-1.7065,-1.7065,-1.7065,0,-1.7154,-1.7153,-1.7134,-1.7136,-1.7132,-1.7108,-1.7114,-1.7107,-1.7094,-1.7091,-1.7081,-1.7074,-1.7063,-1.7068,-1.7075,-1.7073,-1.7073,-1.7064,-1.7094,-1.7097,-1.71,-1.7109,-1.7113,-1.7067,-1.7067,-1.7066,-1.7066,0,-1.7181,-1.718,-1.7187,-1.7175,-1.7172,-1.7176,-1.7158,-1.7157,-1.7144,-1.7132,-1.7135,-1.7122,-1.7115,-1.7115,-1.7102,-1.7118,-1.7112,-1.7099,-1.7079,-1.7107,-1.7115,-1.7118,-1.7069,-1.7069,-1.7068,-1.7068,0,0,-1.7229,-1.7208,-1.7211,-1.7205,-1.719,-1.719,-1.7193,-1.7186,-1.7186,-1.7178,-1.7179,-1.7176,-1.7163,-1.7158,-1.7144,-1.7149,-1.7172,-1.7134,-1.7133,-1.7141,-1.7188,-1.7197,-1.7201,-1.7162,-1.7162,-1.7163,-1.7188,0,-1.7256,-1.726,-1.7244,-1.7252,-1.7252,-1.723,-1.7233,-1.7224,-1.7213,-1.7211,-1.72,-1.7197,-1.7181,-1.7177,-1.7181,-1.7168,-1.7181,-1.7166,-1.7162,-1.7162,-1.7164,-1.7206,-1.7215,-1.724,-1.7191,-1.7192,-1.7192,0,-1.7287,-1.7282,-1.729,-1.7275,-1.7274,-1.7277,-1.727,-1.7268,-1.7258,-1.725,-1.7245,-1.723,-1.7231,-1.7215,-1.7217,-1.7207,-1.7205,-1.7199,-1.7199,-1.7197,-1.7178,-1.7203,-1.7248,-1.7251,-1.7197,-1.7197,-1.7196,0,-1.7321,-1.7316,-1.732,-1.7316,-1.7299,-1.7301,-1.7294,-1.7283,-1.7281,-1.7274,-1.7272,-1.7266,-1.7263,-1.7258,-1.7242,-1.7231,-1.7246,-1.7227,-1.7238,-1.7239,-1.7241,-1.7241,-1.7284,-1.7242,-1.7242,-1.7242,-1.7242,0,-1.7351,-1.7357,-1.7335,-1.7337,-1.7343,-1.7325,-1.7331,-1.7322,-1.7313,-1.7313,-1.7294,-1.7294,-1.7273,-1.7271,-1.7259,-1.7262,-1.7261,-1.7254,-1.725,-1.7255,-1.7256,-1.7252,-1.7249,-1.7243,-1.7243,-1.7242,-1.7242,0,-1.7389,-1.7374,-1.7377,-1.7362,-1.7358,-1.7363,-1.7349,-1.7351,-1.734,-1.734,-1.7339,-1.7322,-1.7319,-1.7302,-1.7295,-1.7287,-1.7294,-1.7288,-1.7298,-1.7295,-1.7307,-1.7305,-1.7348,-1.7352,-1.7309,-1.7309,-1.731,0,-1.7409,-1.7413,-1.7398,-1.7397,-1.7391,-1.7389,-1.7387,-1.7369,-1.7367,-1.7356,-1.7359,-1.7355,-1.735,-1.7346,-1.7333,-1.7327,-1.732,-1.7335,-1.7319,-1.7323,-1.7319,-1.7318,-1.7318,-1.7338,-1.7339,-1.7339,-1.734,0,-1.7445,-1.7438,-1.7434,-1.7429,-1.7426,-1.7421,-1.7415,-1.7415,-1.7396,-1.7394,-1.7391,-1.7388,-1.7381,-1.7377,-1.737,-1.7362,-1.7348,-1.7345,-1.7347,-1.7351,-1.7356,-1.7353,-1.7306,-1.7344,-1.7344,-1.7343,-1.7343,-1.7343,-1.7473,-1.7476,-1.7466,-1.7463,-1.7456,-1.7451,-1.7452,-1.7442,-1.7439,-1.7432,-1.7422,-1.7421,-1.7411,-1.74,-1.7394,-1.7392,-1.7383,-1.7387,-1.7387,-1.7388,-1.739,-1.7358,-1.7391,-1.739,-1.739,-1.739,-1.739,0,-1.7507,-1.75,-1.7498,-1.749,-1.7488,-1.7476,-1.7468,-1.7467,-1.7466,-1.7458,-1.7455,-1.7451,-1.7448,-1.7434,-1.7429,-1.743,-1.7423,-1.7429,-1.7428,-1.7427,-1.7398,-1.7396,-1.7435,-1.7435,-1.7435,-1.7435,-1.7435,-1.7435,-1.7525,-1.7528,-1.752,-1.752,-1.7513,-1.7512,-1.7508,-1.7503,-1.7497,-1.7495,-1.7491,-1.7483,-1.7473,-1.7467,-1.7463,-1.7459,-1.7458,-1.7466,-1.746,-1.7433,-1.7429,-1.7424,-1.7423,-1.7466,-1.7466,-1.7488,-1.7488,-1.7488]},{"header":{"parameterUnit":"m.s-1","parameterCategory":1,"la1":30.2991,"la2":30.254,"lo1":-89.0895,"lo2":-89.0444,"dy":0.0017,"dx":0.0017,"nx":28,"ny":28,"refTime":"2023-09-14T03:00:00:Z","depth":0,"parameterNumber":3,"parameterNumberName":"V-component_of_WINDS"},"data":[0,0,0,0,0,0,0,0,0,0,0,0,0,0,0,0,0,0,0,0,0,0,0,0,0,0,0,0,0,0,0,0,0,0,0,0,0,0,0,0,0,0,0,0,0,0,0,0,0,0,0,0,0,0,0,0,0,0,-1.3154,-1.3154,0,-1.3191,-1.3191,-1.3192,-1.3188,-1.3188,-1.3187,-1.3187,-1.3224,-1.3225,-1.3227,0,0,0,0,0,0,0,0,0,0,0,0,0,-1.3078,-1.308,-1.3154,-1.3154,-1.3155,-1.3191,-1.3191,-1.3192,-1.3188,-1.3188,-1.3187,-1.3186,-1.3223,-1.3225,-1.3227,0,0,0,0,0,0,0,0,0,0,0,0,0,-1.3113,-1.308,-1.3154,-1.3157,-1.3158,-1.3191,-1.3191,-1.3192,-1.3189,-1.3188,-1.3187,-1.3186,-1.3223,-1.3225,-1.3227,-1.3259,0,0,-1.3234,-1.3235,0,0,0,0,0,0,0,0,-1.3111,-1.3116,-1.3156,-1.3157,-1.3158,-1.3184,-1.3178,-1.3214,-1.3189,-1.3177,-1.3187,-1.3186,-1.3211,-1.3215,-1.3223,-1.326,-1.3262,-1.3235,-1.3236,-1.3237,-1.3238,0,0,0,0,0,0,0,-1.3109,-1.3114,-1.3168,-1.3157,-1.3158,-1.3157,-1.3161,-1.3185,-1.3198,-1.3178,-1.3178,-1.3182,-1.3212,-1.3221,-1.3224,-1.3262,-1.3234,-1.3237,-1.3238,-1.3239,-1.3326,-1.3327,0,0,0,0,0,0,-1.3105,-1.3112,-1.3167,-1.3169,-1.3132,-1.3159,-1.3163,-1.3177,-1.3198,-1.3201,-1.3183,-1.3182,-1.3218,-1.3222,-1.3226,-1.3264,-1.3237,-1.3239,-1.324,-1.3326,-1.3327,-1.3328,0,0,0,0,0,0,-1.3104,-1.311,-1.3166,-1.3141,-1.3148,-1.3161,-1.3176,-1.3178,-1.3187,-1.3202,-1.3204,-1.319,-1.3217,-1.3222,-1.325,-1.3265,-1.324,-1.3242,-1.3324,-1.3326,-1.3327,-1.334,0,0,0,0,0,0,-1.3102,-1.311,-1.3122,-1.3141,-1.3149,-1.319,-1.3177,-1.3179,-1.3191,-1.319,-1.321,-1.3212,-1.3217,-1.3247,-1.3253,-1.3268,-1.3244,-1.3323,-1.3325,-1.3327,-1.3338,-1.3342,-1.3344,0,0,0,0,0,-1.3099,-1.3124,-1.3123,-1.313,-1.3165,-1.3191,-1.3196,-1.3201,-1.3193,-1.3205,-1.3214,-1.3211,-1.3262,-1.325,-1.3256,-1.3272,-1.3322,-1.3325,-1.3327,-1.3337,-1.3341,-1.3344,0,0,0,0,0,0,-1.3107,-1.3127,-1.3126,-1.3158,-1.3173,-1.3191,-1.3207,-1.3205,-1.3223,-1.3222,-1.3227,-1.3231,-1.326,-1.3269,-1.3255,-1.3303,-1.3291,-1.3295,-1.3297,-1.3301,-1.3304,-1.3301,-1.3246,0,0,0,0,0,-1.3112,-1.3132,-1.3148,-1.3175,-1.3183,-1.3193,-1.3205,-1.3208,-1.3224,-1.323,-1.3241,-1.3257,-1.3276,-1.3289,-1.3307,-1.3339,-1.3343,-1.3353,-1.3356,-1.3359,-1.3362,-1.3379,-1.3384,-1.3335,-1.3335,-1.3335,0,0,-1.3123,-1.3137,-1.3149,-1.3177,-1.3189,-1.3209,-1.3199,-1.3221,-1.3236,-1.3233,-1.3261,-1.3269,-1.3287,-1.3317,-1.3331,-1.3325,-1.3376,-1.3361,-1.3363,-1.3365,-1.3382,-1.3386,-1.3391,-1.3336,-1.3336,-1.3336,0,0,-1.3155,-1.3167,-1.3191,-1.3203,-1.3221,-1.3228,-1.3233,-1.3251,-1.3257,-1.3285,-1.3283,-1.3301,-1.3334,-1.3346,-1.3357,-1.3392,-1.339,-1.3398,-1.3414,-1.3431,-1.3435,-1.3439,-1.3451,-1.3456,-1.3401,-1.3401,-1.3401,0,-1.3167,-1.3198,-1.3203,-1.3225,-1.3237,-1.3236,-1.3259,-1.3271,-1.3294,-1.3303,-1.3296,-1.3337,-1.3349,-1.3382,-1.339,-1.3399,-1.3405,-1.3396,-1.3434,-1.3438,-1.3441,-1.3453,-1.3458,-1.3402,-1.3402,-1.3402,-1.3402,0,-1.3212,-1.3233,-1.325,-1.3273,-1.3287,-1.3309,-1.3318,-1.3331,-1.3332,-1.3339,-1.3367,-1.3381,-1.3402,-1.341,-1.3411,-1.3443,-1.3439,-1.3433,-1.3421,-1.3447,-1.3458,-1.3463,-1.3403,-1.3403,-1.3402,-1.3402,0,0,-1.325,-1.3275,-1.3281,-1.3291,-1.3311,-1.3327,-1.335,-1.3371,-1.3382,-1.3398,-1.3417,-1.3445,-1.3439,-1.3451,-1.3454,-1.3469,-1.3496,-1.3461,-1.3462,-1.3468,-1.3532,-1.3536,-1.3542,-1.3494,-1.3495,-1.3496,-1.353,0,-1.3284,-1.3324,-1.3329,-1.3365,-1.3384,-1.3383,-1.3402,-1.3416,-1.3423,-1.3441,-1.3448,-1.3468,-1.3459,-1.3466,-1.3481,-1.349,-1.3509,-1.3487,-1.3512,-1.3513,-1.3509,-1.3548,-1.3553,-1.3585,-1.3535,-1.3536,-1.3536,0,-1.3329,-1.3346,-1.3384,-1.3401,-1.3409,-1.3427,-1.3446,-1.3463,-1.3478,-1.3482,-1.3495,-1.3496,-1.3519,-1.3505,-1.3536,-1.3521,-1.3532,-1.3537,-1.3539,-1.3542,-1.3527,-1.3553,-1.3595,-1.36,-1.3543,-1.3543,-1.3542,0,-1.3354,-1.3386,-1.3413,-1.3422,-1.3442,-1.3454,-1.3463,-1.3478,-1.349,-1.3507,-1.3514,-1.3533,-1.3544,-1.3558,-1.3564,-1.3553,-1.3595,-1.3581,-1.3599,-1.3598,-1.3608,-1.3608,-1.3654,-1.3614,-1.3614,-1.3613,-1.3613,0,-1.3391,-1.3415,-1.3425,-1.3441,-1.3467,-1.3472,-1.3497,-1.3505,-1.3518,-1.3536,-1.3535,-1.3552,-1.3558,-1.3575,-1.3579,-1.3604,-1.3609,-1.3613,-1.3614,-1.3613,-1.3613,-1.3621,-1.3619,-1.3615,-1.3614,-1.3614,-1.3614,0,-1.3424,-1.3431,-1.3461,-1.3477,-1.3482,-1.35,-1.3514,-1.353,-1.3536,-1.3558,-1.3564,-1.3574,-1.3594,-1.3601,-1.3626,-1.3628,-1.3658,-1.3657,-1.3653,-1.3653,-1.367,-1.3669,-1.3724,-1.3731,-1.3685,-1.3686,-1.3686,0,-1.3448,-1.3466,-1.3484,-1.3496,-1.3505,-1.3525,-1.3537,-1.3542,-1.3555,-1.3573,-1.3587,-1.3607,-1.3624,-1.3656,-1.3666,-1.3684,-1.3684,-1.3702,-1.3687,-1.3685,-1.3685,-1.3684,-1.3686,-1.3705,-1.3705,-1.3706,-1.3706,0,-1.349,-1.3492,-1.3511,-1.353,-1.3545,-1.356,-1.3575,-1.3584,-1.3591,-1.3606,-1.3627,-1.364,-1.3665,-1.3685,-1.3704,-1.3712,-1.371,-1.371,-1.3715,-1.3716,-1.3713,-1.3715,-1.3661,-1.3709,-1.3709,-1.3709,-1.3709,-1.3708,-1.3519,-1.3535,-1.355,-1.357,-1.3582,-1.3595,-1.3611,-1.3619,-1.3637,-1.3658,-1.366,-1.3682,-1.3696,-1.3722,-1.3731,-1.3749,-1.3743,-1.3751,-1.3753,-1.3754,-1.3756,-1.3709,-1.3752,-1.3752,-1.3752,-1.3752,-1.3752,0,-1.3562,-1.3571,-1.3589,-1.361,-1.3626,-1.3622,-1.3638,-1.3651,-1.3672,-1.3685,-1.3701,-1.3725,-1.3744,-1.3755,-1.3774,-1.3786,-1.3785,-1.3791,-1.379,-1.3792,-1.3759,-1.3753,-1.3791,-1.3791,-1.3791,-1.3791,-1.3791,-1.3791,-1.3586,-1.3612,-1.3617,-1.3648,-1.3658,-1.368,-1.369,-1.3702,-1.3713,-1.374,-1.3756,-1.3762,-1.3775,-1.3794,-1.3812,-1.3814,-1.3821,-1.3827,-1.3829,-1.3799,-1.3795,-1.3791,-1.3785,-1.3829,-1.3829,-1.3861,-1.3861,-1.3862]}]]